星链-33632 (STARLINK-33632)

导读

STARLINK-33632是美国太空探索技术公司(SpaceX)部署的星链(Starlink)卫星,于2025年4月14日在美国佛罗里达州卡纳维拉尔角太空军基地,由猎鹰9号火箭随Starlink Group 6-73任务发射进入近地轨道。它属于星链低轨宽带互联网星座的组成部分,旨在为全球偏远地区、海洋等缺乏地面通信基础设施的区域,提供高速低延迟的宽带互联网接入服务,进一步拓展星链网络的全球覆盖能力。

Basic Information
目录编号:
63577
目录名称:
STARLINK-33632
国际标识:
2025-076J
轨道中心:
EARTH
卫星名称:
星链-33632
卫星全名:
星链-33632 (STARLINK-33632)
卫星状态:
在轨 (已飞行508 天)
发射日期:
2025-04-14 UTC
国别 :
美国 (US)
星等 :
--
Orbit Information
数据来源 国际轨道数据
星历时间: 2026-09-04T05:51:02+0800
14小时前
查看轨道信息
半长轴: 6861.148km
偏心率: 0.0001526
轨道倾角: 43.001°
近地点辐角 274.964°
升交点赤经 35.486°
平近点角 85.103°
近地点: 481.963km
远地点: 484.059km
周期: 94.266分钟
每日圈数: 15.275929
Detailed Information
固有亮度:
5
最大亮度:
2.5
卫星平台:
Starlink V1.0
覆盖范围:
全球
运营商:
太空探索技术公司
运营商所在国:
美国
制造商(研发单位):
太空探索技术公司
制造商所在国:
美国
使用方式:
暂无
Satellite Introduction
Starlink 计划是 SpaceX 推出的全球卫星互联网项目,通过发射低轨道卫星,为全球尤其是偏远地区提供高速、低延迟的互联网服务。自 2019 年起,Starlink 已部署数千颗卫星,旨在缩小全球数字鸿沟,推动互联网普及。该项目还为军事、航空等行业提供通信支持,带来广泛经济效益。
2D Orbit Map
3D Orbit Map
Orbit Altitude Analysis Chart
Orbit Inclination Analysis Chart
Orbit Comprehensive Analysis Chart
View Comprehensive Chart
Conjunction Data List
Event ID Objects TCA Miss Dist (km) Collision Risk Probability Collision Risk Index (CRI) Action
CDM_260905-202605-715506-357721
2026-09-05T
20:26:15+0000
0.612 km
远距离
6.252422E-5 中风险 0.71
CDM_260904-171905-709006-357721
2026-09-04T
17:19:52+0000
0.867 km
远距离
3.243998E-5 中风险 0.65
CDM_260906-032905-715506-357721
2026-09-06T
03:29:56+0000
0.819 km
远距离
2.51746E-5 中风险 0.63
CDM_260906-025406-248206-357721
2026-09-06T
02:54:24+0000
1.528 km
极远距离
3.069801E-6 低风险 0.45
CDM_260906-012006-248206-357721
2026-09-06T
01:20:15+0000
1.564 km
极远距离
2.858297E-6 低风险 0.44
CDM_260904-185405-709006-357721
2026-09-04T
18:54:01+0000
1.857 km
极远距离
2.638768E-6 低风险 0.43
CDM_260906-042806-248206-357721
2026-09-06T
04:28:33+0000
1.618 km
极远距离
2.582629E-6 低风险 0.43
CDM_260905-234606-248206-357721
2026-09-05T
23:46:06+0000
1.733 km
极远距离
2.122266E-6 低风险 0.42
CDM_260903-085405-319706-357721
2026-09-03T
08:54:06+0000
2.153 km
极远距离
2.0641E-6 低风险 0.41
CDM_260906-060206-248206-357721
2026-09-06T
06:02:41+0000
1.803 km
极远距离
1.904596E-6 低风险 0.41